XM-5

Last updated on Thu Oct 30 2025 00:02:48 GMT+0000 (Coordinated Universal Time)

1 37185U 10053A 25302.48776183 -.00000013 00000+0 00000+0 0 9992 2 37185 0.0597 269.6565 0000790 207.1847 341.6632 1.00270491 55178
UTC large
Height (km)
Speed (km/s)
/
Latitude / Longitude
Inclination (degrees)
Orbital Period (minutes)
Azimuth
Elevation
Range (km)
Doppler Factor

Next 0 passes for location: London (51.5072 / 0.1276)

Sorry there are no passes over London.